Flag Weather past 2 weeks in Orange, California, U.S.A.

Now
65 °F

Passing clouds.


Feels Like: 65 °F
Forecast: 54 / 76 °F
Wind: No wind

Location: John Wayne Airport-Orange County Airport

Current Time: Nov 22, 2014 at 8:55:04 PM

Latest Report: Nov 22, 2014 at 7:53 PM


Visibility: 10 mi

Pressure: 30.03 "Hg

Humidity: 73%

Dew point: 56 °F

Location of OrangeLocation

Historic Weather in Orange — Graph

°F

Orange temperature yesterday

Maximum temperature yesterday: 72 °F (at 12:53 PM)
Minimum temperature yesterday: 60 °F (at 5:53 AM)
Average temperature yesterday: 66 °F

Past Weeks' High & Low Weather Summary

 TemperatureHumidityPressure
High89 °F (Nov 8, 12:53 PM)88% (Nov 9, 1:01 AM)30.16 "Hg (Nov 9, 1:01 AM)
Low53 °F (Nov 18, 4:53 AM)4% (Nov 16, 9:53 AM)29.81 "Hg (Nov 9, 3:53 PM)
Average67 °F55%30.01 "Hg
* Reported Nov 7 6:53 PM — Nov 22 6:53 PM, Orange, Weather by CustomWeather, © 2014

Note: Actual official high and low records may vary slightly from our data, if they occured in-between our weather recording intervals... More about our weather records

Advertising

Orange weather history for previous 24 hours

 ConditionsComfort  
Time TempWeatherWind HumidityBarometerVisibility
6:53 PM
Nov 22
66 °FPassing clouds.No wind70%30.01 "Hg10 mi
5:53 PM66 °FPassing clouds.3 mph70%30.02 "Hg10 mi
4:53 PM67 °FPassing clouds.7 mph73%30.01 "Hg10 mi
3:53 PM70 °FBroken clouds.7 mph55%30.02 "Hg10 mi
2:53 PM71 °FBroken clouds.8 mph57%30.02 "Hg10 mi
1:53 PM71 °FScattered clouds.9 mph57%30.03 "Hg10 mi
12:53 PM72 °FScattered clouds.8 mph52%30.04 "Hg10 mi
11:53 AM72 °FScattered clouds.8 mph53%30.06 "Hg10 mi
10:53 AM71 °FScattered clouds.No wind53%30.09 "Hg10 mi
9:53 AM68 °FScattered clouds.No wind59%30.11 "Hg10 mi
8:53 AM65 °FPassing clouds.No wind61%30.10 "Hg10 mi
7:53 AM60 °FSunny.No wind65%30.09 "Hg10 mi
6:53 AM56 °FSunny.No wind72%30.07 "Hg10 mi
5:53 AM56 °FClear.No wind70%30.07 "Hg10 mi
4:53 AM57 °FClear.No wind67%30.06 "Hg10 mi
3:53 AM57 °FClear.No wind69%30.05 "Hg10 mi
2:53 AM58 °FClear.No wind70%30.06 "Hg10 mi
1:53 AM59 °FClear.No wind67%30.06 "Hg10 mi
12:53 AM60 °FClear.3 mph67%30.06 "Hg10 mi
11:53 PM
Nov 21
60 °FClear.No wind67%30.06 "Hg10 mi
10:53 PM61 °FClear.No wind65%30.04 "Hg10 mi
9:53 PM63 °FClear.No wind63%30.04 "Hg10 mi
8:53 PM64 °FClear.5 mph63%30.03 "Hg10 mi
Weather by CustomWeather, © 2014

See weather overviewHow to use our weather pages